• Join FlightAware (Why Join?)
  • Login
  • US Flag 
Gobble Gobble! 
02:09AM EST


 

Airport Tracker/Info


-or-


 

Live Flight TrackerFlight Track Log ✈ NWF338 ✈ 06-Jul-2013 ✈ KPWK - KEGV

Flight Track Log - Related Links

Times and Time Zones

All times are in EDT time to prevent confusion due to time zone crossing. See the NWF338 flight status page for this flight to view local times or setup timezone preferences in your user account.

Time Position Orientation Groundspeed Altitude Reporting Facility
EDT Latitude Longitude Course Direction KTS MPH feet Rate Location/Type
12:45PM 42.1519 -87.9119 360° North 179 206 28,000  Level Chicago Center
12:46PM 42.2047 -87.9122 360° North 227 261 4,000 -10,200 Descending Chicago Center
12:47PM 42.2742 -87.8267 42° Northeast 282 325 7,000 2,700 Climbing Chicago Center
12:48PM 42.3550 -87.8128 North 291 335 9,700 2,460 Climbing Chicago Center
12:49PM 42.4411 -87.8119 360° North 305 351 12,100 2,160 Climbing Chicago Center
12:50PM 42.5292 -87.8086 North 316 364 14,200 1,980 Climbing Chicago Center
12:51PM 42.6192 -87.8161 356° North 323 372 16,200 1,740 Climbing Chicago Center
12:52PM 42.7225 -87.8692 339° North 339 390 17,900 1,800 Climbing Chicago Center
12:53PM 42.8158 -87.9047 344° North 347 399 20,000 1,560 Climbing Chicago Center
12:54PM 42.9100 -87.9458 342° North 354 407 21,200 1,200 Climbing Chicago Center
12:55PM 43.0083 -87.9853 344° North 366 421 22,600 840 Climbing Chicago Center
12:56PM 43.1089 -88.0289 342° North 377 434 23,000 480 Climbing Chicago Center
12:57PM 43.2156 -88.0714 344° North 397 457 23,700 960 Climbing Chicago Center
12:58PM 43.3339 -88.1211 343° North 385 443 25,100 1,140 Climbing Chicago Center
12:59PM 43.4342 -88.1647 342° North 382 440 26,100 960 Climbing Chicago Center
01:00PM 43.5358 -88.2064 343° North 386 444 27,100 900 Climbing Chicago Center
01:01PM 43.6397 -88.2503 343° North 394 453 28,000 420 Climbing Chicago Center
01:02PM 43.7650 -88.3050 342° North 405 466 28,000  Level Chicago Center
01:03PM 43.8772 -88.3547 342° North 422 486 28,000  Level Chicago Center
01:04PM 43.9878 -88.4019 343° North 419 482 28,000  Level Chicago Center
01:05PM 44.0969 -88.4503 342° North 413 475 28,000  Level Chicago Center
01:06PM 44.2058 -88.4961 343° North 411 473 28,000  Level Minneapolis Center
01:07PM 44.3319 -88.5514 343° North 408 470 28,000  Level Minneapolis Center
01:09PM 44.4417 -88.5981 343° North 412 474 28,000  Level Minneapolis Center
01:10PM 44.5497 -88.6447 343° North 407 468 28,000  Level Minneapolis Center
01:11PM 44.6583 -88.6931 342° North 408 470 28,000  Level Minneapolis Center
01:12PM 44.7678 -88.7414 343° North 411 473 28,000 -360 Level Minneapolis Center
01:13PM 44.8742 -88.7897 342° North 402 463 27,300 -1,500 Descending Minneapolis Center
01:14PM 44.9950 -88.8417 343° North 388 447 24,900 -1,620 Descending Minneapolis Center
01:15PM 45.1014 -88.8914 342° North 399 459 24,000 -1,260 Descending Minneapolis Center
01:16PM 45.2061 -88.9356 343° North 394 453 22,400 -1,800 Descending Minneapolis Center
01:17PM 45.3044 -88.9819 342° North 375 432 20,300 -2,220 Descending Minneapolis Center
01:18PM 45.3997 -89.0239 343° North 362 417 17,800 -2,160 Descending Minneapolis Center
01:19PM 45.4783 -89.0603 342° North 368 423 15,900 -2,760 Descending Minneapolis Center
01:20PM 45.6072 -89.1178 343° North 346 398 12,200 -3,240 Descending Minneapolis Center
01:21PM 45.6908 -89.1567 342° North 319 367 9,200 -2,760 Descending Minneapolis Center
01:22PM 45.7667 -89.1933 341° North 292 336 6,500 -2,640 Descending Minneapolis Center